Home > Weather > Bellingham > Past weeks

Flag for USA Past Weather in Bellingham, Washington, USA — Yesterday and Last 2 Weeks

Now
65 °F

Clear.


Feels Like: 65 °F
Forecast: 59 / 82 °F
Wind: No wind

Location: Bellingham International Airport

Current Time: Aug 25, 2016 at 10:16:49 PM

Latest Report: Aug 25, 2016 at 9:53 PM


Visibility: 10 mi

Pressure: 29.97 "Hg

Humidity: 73%

Dew Point: 56 °F

Location of BellinghamLocation

Past Weather in Bellingham — Graph

°F

Bellingham Temperature Yesterday

Maximum temperature yesterday: 79 °F (at 12:53 PM)
Minimum temperature yesterday: 52 °F (at 4:53 AM)
Average temperature yesterday: 66 °F

High & Low Weather Summary for the Past Weeks

 TemperatureHumidityPressure
High88 °F (Aug 18, 2:53 PM)100% (Aug 17, 5:53 AM)30.27 "Hg (Aug 17, 5:53 AM)
Low47 °F (Aug 23, 5:53 AM)24% (Aug 19, 4:53 PM)29.79 "Hg (Aug 21, 2:53 AM)
Average67 °F68%30.05 "Hg
* Reported Aug 10 8:53 PM — Aug 25 8:53 PM, Bellingham, Weather by CustomWeather, © 2016

Note: Actual official high and low records may vary slightly from our data, if they occured in-between our weather recording intervals... More about our weather records

Advertising

Bellingham Weather History for the Previous 24 Hours

Scroll right to see more
 ConditionsComfort  
Time TempWeatherWind HumidityBarometerVisibility
8:53 PM
Thu, Aug 25
67 °FSunny.No wind71%29.98 "Hg10 mi
7:53 PM71 °FSunny.3 mph59%29.98 "Hg10 mi
6:53 PM75 °FSunny.5 mph50%29.98 "Hg10 mi
5:53 PM82 °FSunny.5 mph38%29.99 "Hg10 mi
4:53 PM83 °FSunny.6 mph36%30.01 "Hg10 mi
3:53 PM84 °FSunny.9 mph32%30.03 "Hg10 mi
2:53 PM83 °FSunny.10 mph36%30.05 "Hg10 mi
1:53 PM81 °FSunny.10 mph39%30.07 "Hg10 mi
12:53 PM81 °FSunny.7 mph42%30.09 "Hg10 mi
11:53 AM79 °FSunny.9 mph42%30.11 "Hg10 mi
10:53 AM77 °FSunny.No wind40%30.13 "Hg10 mi
9:53 AM74 °FSunny.8 mph46%30.15 "Hg10 mi
8:53 AM68 °FSunny.No wind59%30.15 "Hg10 mi
7:53 AM62 °FSunny.No wind80%30.16 "Hg10 mi
6:53 AM54 °FClear.No wind93%30.15 "Hg10 mi
5:53 AM55 °FClear.No wind90%30.15 "Hg10 mi
4:53 AM54 °FClear.No wind93%30.14 "Hg10 mi
3:53 AM57 °FClear.No wind87%30.14 "Hg10 mi
2:53 AM58 °FClear.No wind87%30.15 "Hg10 mi
1:53 AM59 °FClear.No wind81%30.14 "Hg10 mi
12:53 AM60 °FClear.No wind80%30.14 "Hg10 mi
11:53 PM
Wed, Aug 24
61 °FClear.No wind81%30.14 "Hg10 mi
10:53 PM60 °FClear.No wind80%30.14 "Hg10 mi
Weather by CustomWeather, © 2016

See weather overviewHow to use our weather pages